EUTELSAT 16C

Last updated on Wed Feb 07 2018 00:19:33 GMT+0000 (Coordinated Universal Time)

1 26243U 00019A 18035.81184084 -.00000164 00000-0 00000+0 0 9999 2 26243 4.6892 65.2910 0006611 62.1025 302.1188 0.99274932 65167
UTC large
Height (km)
Speed (km/s)
/
Latitude / Longitude
Inclination (degrees)
Orbital Period (minutes)
Azimuth
Elevation
Range (km)
Doppler Factor

Next 0 passes for location: London (51.5072 / 0.1276)

Sorry there are no passes over London.